カタログに戻る

STARLINK-1577

運用中通信VLEO
NORAD 46063·PAYLOAD·🇺🇸 United States

打ち上げ Aug 7, 2020 から Cape Canaveral Space Force Station

Loading…

次のパス (今後24時間)

TLE

最新Source: CelesTrak SupGP

元期: Sep 14, 2026, 20:10 UTC

1 46063C 20055AN  26257.84076389 -.00032901  00000+0 -10578-2 0  2574
2 46063  53.1570 313.6117 0001222  90.7176 192.7379 15.31723530    10

AllMySatでSTARLINK-1577をリアルタイム追跡

Download on the App Store